This demonstration page uses our WeatherBlox Daily Observations layout. Learn more.

Left ArrowRight Arrow

38.20091, -84.87328

Hourly Observations for August 26, 2019

Temp ( °F °C ) Dew Point ( °F °C ) Humidity (%) Winds ( mph kmh ) Pressure ( in mb ) Visibility ( mi km ) Precip ( " mm )
12:43 am 00:43 Cloudy 74 23.3 69 20.6 85 85 ESE 6 9 29.96 1015 10 16 0.00 0.00
12:53 am 00:53 Cloudy 74 23.3 69 20.6 85 85 ESE 3 6 29.96 1015 10 16 0.00 0.00
2:53 am 02:53 Cloudy 74 23.3 70 21.1 88 88 SSE 5 7 29.93 1014 9 14 0.00 0.00
3:15 am 03:15 Cloudy 74 23.3 70 21.1 88 88 SSE 6 9 29.93 1014 10 16 0.00 0.00
3:53 am 03:53 Cloudy with Light Rain 73 22.8 70 21.1 90 90 SSE 7 11 29.93 1014 6 10 0.01 0.25
4:29 am 04:29 Cloudy with Light Rain 72 22.2 70 21.1 94 94 SSE 9 15 29.93 1014 8 13 0.01 0.25
4:38 am 04:38 Cloudy with Light Rain 72 22.2 70 21.1 94 94 SSE 8 13 29.93 1014 8 13 0.02 0.51
4:53 am 04:53 Cloudy with Light Rain 72 22.2 69 20.6 91 91 SSE 8 13 29.93 1014 10 16 0.02 0.51
5:17 am 05:17 Cloudy with Light Rain 72 22.2 69 20.6 91 91 SSE 8 13 29.93 1014 8 13 0.00 0.00
5:26 am 05:26 Cloudy 71 21.7 69 20.6 94 94 SSE 8 13 29.94 1014 7 11 0.00 0.00
5:36 am 05:36 Cloudy with Light Rain 71 21.7 69 20.6 94 94 SSE 8 13 29.94 1014 9 14 0.00 0.00
5:53 am 05:53 Cloudy 71 21.7 69 20.6 94 94 S 8 13 29.93 1014 8 13 0.00 0.00
6:53 am 06:53 Cloudy with Light Rain 71 21.7 69 20.6 94 94 SE 6 9 29.94 1014 10 16 0.02 0.51
7:20 am 07:20 Cloudy 71 21.7 69 20.6 94 94 SSE 7 11 29.95 1014 10 16 0.00 0.00
7:38 am 07:38 Cloudy 70 21.1 69 20.6 97 97 SSE 9 15 29.95 1014 7 11 0.00 0.00
7:50 am 07:50 Cloudy 70 21 70 21 100 100 SSE 9 15 29.95 1014 8 13 0.00 0.00
7:53 am 07:53 Cloudy 70 21.1 68 20 93 93 SSE 8 13 29.95 1014 7 11 0.00 0.00
8:00 am 08:00 Cloudy with Rain 70 21.1 68 20 93 93 SSE 8 13 29.95 1014 2 2 0.06 1.52
8:12 am 08:12 Cloudy with Light Rain 70 21.1 68 20 93 93 SSE 8 13 29.95 1014 3 5 0.10 2.54
8:53 am 08:53 Cloudy 71 21.7 68 20 90 90 SSE 8 13 29.96 1014 10 16 0.10 2.54
9:53 am 09:53 Cloudy with Light Rain 71 21.7 69 20.6 94 94 SSE 10 17 29.95 1014 9 14 0.00 0.00
10:50 am 10:50 Cloudy with Light Rain 72 22 68 20 88 88 S 8 13 29.96 1014 3 5 0.05 1.27
10:53 am 10:53 Cloudy with Light Rain 71 21.7 69 20.6 94 94 SSE 9 15 29.95 1014 4 6 0.05 1.27
11:06 am 11:06 Cloudy with Light Rain 71 21.7 69 20.6 94 94 S 8 13 29.96 1014 6 10 0.01 0.25
11:46 am 11:46 Cloudy with Light Rain 71 21.7 68 20 90 90 SSE 12 19 29.95 1014 5 8 0.04 1.02
11:53 am 11:53 Cloudy with Light Rain 71 21.7 68 20 90 90 S 9 15 29.95 1014 8 13 0.04 1.02
12:53 pm 12:53 Cloudy with Light Rain 71 21.7 68 20 90 90 S 8 13 29.95 1014 3 4 0.03 0.76
1:00 pm 13:00 Cloudy with Heavy Rain 71 21.7 68 20 90 90 S 12 19 29.95 1014 2 3 0.02 0.51
1:16 pm 13:16 Cloudy with Rain 71 21.7 69 20.6 94 94 SSE 12 19 29.94 1014 4 6 0.05 1.27
1:53 pm 13:53 Cloudy 72 22.2 69 20.6 91 91 SSE 13 20 29.93 1014 10 16 0.07 1.78
2:06 pm 14:06 Cloudy with Light Rain 72 22.2 69 20.6 91 91 SSE 13 20 29.92 1013 9 14 0.00 0.00
2:26 pm 14:26 Cloudy with Rain 72 22.2 69 20.6 91 91 SSE 12 19 29.92 1013 3 4 0.03 0.76
2:48 pm 14:48 Cloudy with Heavy Rain 72 22 70 21 94 94 SSE 7 11 29.93 1013 2 2 0.13 3.30
2:49 pm 14:49 Cloudy with Heavy Rain 71 21.7 69 20.6 94 94 SSE 8 13 29.92 1013 1 2 0.13 3.30
2:53 pm 14:53 Cloudy with Heavy Rain 71 21.7 69 20.6 94 94 SE 9 15 29.92 1013 1 2 0.02 0.51
3:00 pm 15:00 Cloudy with Rain 71 21.7 69 20.6 94 94 SE 7 11 29.92 1013 2 2 0.03 0.76
3:12 pm 15:12 Cloudy with Light Rain 71 21.7 69 20.6 94 94 SSE 10 17 29.91 1013 3 5 0.04 1.02
3:24 pm 15:24 Cloudy with Light Rain 71 21.7 69 20.6 94 94 SSE 10 17 29.91 1013 2 3 0.06 1.52
3:36 pm 15:36 Cloudy with Light Rain 71 21.7 69 20.6 94 94 SSE 10 17 29.91 1013 2 3 0.08 2.03
3:53 pm 15:53 Cloudy with Light Rain 71 21.7 69 20.6 94 94 S 14 22 29.90 1013 5 8 0.09 2.29
4:31 pm 16:31 Cloudy with Light Rain 71 21.7 68 20 90 90 S 12 19 29.90 1012 5 8 0.05 1.27
4:51 pm 16:51 Cloudy with Light Rain 72 22 70 21 94 94 S 9 15 29.90 1012 10 16 0.06 1.52
4:53 pm 16:53 Cloudy with Light Rain 71 21.7 69 20.6 94 94 S 8 13 29.89 1012 10 16 0.06 1.52
5:22 pm 17:22 Cloudy with Light Rain 71 21.7 69 20.6 94 94 S 9 15 29.89 1012 7 11 0.04 1.02
5:49 pm 17:49 Cloudy with Rain 72 22 70 21 94 94 S 10 17 29.89 1012 5 8 0.06 1.52
5:53 pm 17:53 Cloudy with Light Rain 71 21.7 69 20.6 94 94 S 9 15 29.88 1012 5 8 0.06 1.52
6:03 pm 18:03 Cloudy with Light Rain 71 21.7 69 20.6 94 94 S 9 15 29.89 1012 7 11 0.00 0.00
6:27 pm 18:27 Cloudy 71 21.7 68 20 90 90 S 10 17 29.89 1012 10 16 0.00 0.00
6:47 pm 18:47 Cloudy with Light Rain 72 22 70 21 94 94 SSE 8 13 29.88 1012 7 11 0.01 0.25
6:48 pm 18:48 Cloudy with Light Rain 71 21.7 69 20.6 94 94 S 8 13 29.88 1012 6 10 0.01 0.25
7:09 pm 19:09 Cloudy with Light Rain 71 21.7 69 20.6 94 94 S 8 13 29.88 1012 7 11 0.01 0.25
7:53 pm 19:53 Cloudy 70 21.1 68 20 93 93 S 9 15 29.89 1012 8 13 0.01 0.25
8:07 pm 20:07 Cloudy 70 21.1 68 20 93 93 S 8 13 29.89 1012 10 16 0.00 0.00
8:53 pm 20:53 Cloudy 70 21.1 68 20 93 93 S 9 15 29.90 1012 10 16 0.00 0.00
9:53 pm 21:53 Cloudy 70 21.1 68 20 93 93 S 9 15 29.88 1012 10 16 0.00 0.00
10:53 pm 22:53 Cloudy 70 21.1 68 20 93 93 S 8 13 29.89 1012 10 16 0.00 0.00
11:26 pm 23:26 Cloudy 70 21.1 68 20 93 93 S 8 13 29.90 1012 10 16 0.00 0.00
11:53 pm 23:53 Cloudy 70 21.1 68 20 93 93 S 8 13 29.89 1012 8 13 0.00 0.00

Powered by AerisWeather